Franklin, PA

4:26 AM EST on February 23, 2017 (GMT -0500)
Venango Regional

Weather History for KFKL - May, 2013

Change the Weather History Date:

Wednesday, May 22, 2013

  Actual Average Record
Temperature  
Mean Temperature 74 °F -  
Max Temperature 84 °F 71 °F 91 °F (1977)
Min Temperature 64 °F 45 °F 28 °F (2002)
Cooling Degree Days 9    
Growing Degree Days 24 (Base 50)    
Moisture  
Dew Point 61 °F    
Average Humidity 68    
Maximum Humidity 88    
Minimum Humidity 45    
Precipitation  
Precipitation 0.01 in - - ()
Sea Level Pressure  
Sea Level Pressure 29.86 in    
Wind  
Wind Speed 10 mph (SSW)    
Max Wind Speed 22 mph    
Max Gust Speed 30 mph    
Visibility 10 miles    
Events Thunderstorm    
Averages and records for this station are not official NWS values.
T = Trace of Precipitation, MM = Missing Value Source: NWS Daily Summary

Daily Weather History Graph

Daily Weather History Graph

Search for Another Location

Airport or City:

Trip Planner

Search our weather history database for the weather conditions in past years. The results will help you decide how hot, cold, wet, or windy it might be!

Date:

Astronomy

May. 22, 2013 Rise Set
Actual Time 5:54 AM EDT 8:38 PM EDT
Civil Twilight 5:22 AM EDT 9:10 PM EDT
Nautical Twilight 4:41 AM EDT 9:51 PM EDT
Astronomical Twilight 3:55 AM EDT 10:37 PM EDT
Moon 5:57 PM EDT (5/22) 3:59 AM EDT (5/22)
Length of Visible Light 15h 48m
Length of Day
14h 44m
Waxing Gibbous, 91% of the Moon is Illuminated
May 22
Waxing Gibbous
May 25
Full
May 31
Last Quarter
Jun 8
New
Jun 16
First Quarter

Hourly Weather History & Observations

Time (EDT) Temp. Heat Index Dew Point Humidity Pressure Visibility Wind Dir Wind Speed Gust Speed Precip Events Conditions
12:15 AM 71.6 °F - 62.6 °F 73% 29.89 in 10.0 mi SSW 5.8 mph - N/A   Clear
12:35 AM 71.6 °F - 62.6 °F 73% 29.89 in 10.0 mi SSW 9.2 mph - N/A   Clear
12:55 AM 71.6 °F - 62.6 °F 73% 29.89 in 10.0 mi SSW 11.5 mph - N/A   Clear
1:15 AM 71.6 °F - 62.6 °F 73% 29.88 in 10.0 mi SW 6.9 mph - N/A   Clear
1:35 AM 69.8 °F - 62.6 °F 78% 29.88 in 10.0 mi SW 6.9 mph - N/A   Clear
1:55 AM 69.8 °F - 62.6 °F 78% 29.88 in 10.0 mi SSW 6.9 mph - N/A   Clear
2:15 AM 69.8 °F - 62.6 °F 78% 29.87 in 10.0 mi SW 5.8 mph - N/A   Clear
2:35 AM 69.8 °F - 60.8 °F 73% 29.87 in 10.0 mi SSW 8.1 mph - N/A   Clear
2:55 AM 69.8 °F - 62.6 °F 78% 29.86 in 10.0 mi SW 6.9 mph - N/A   Scattered Clouds
3:15 AM 69.8 °F - 62.6 °F 78% 29.87 in 10.0 mi SW 5.8 mph - N/A   Overcast
3:35 AM 68.0 °F - 62.6 °F 83% 29.87 in 10.0 mi SSW 6.9 mph - N/A   Overcast
3:55 AM 68.0 °F - 62.6 °F 83% 29.87 in 10.0 mi SSW 3.5 mph - N/A   Overcast
4:15 AM 66.2 °F - 62.6 °F 88% 29.87 in 10.0 mi SSW 5.8 mph - N/A   Overcast
4:35 AM 66.2 °F - 62.6 °F 88% 29.87 in 10.0 mi South 8.1 mph - N/A   Overcast
4:55 AM 66.2 °F - 62.6 °F 88% 29.87 in 10.0 mi South 8.1 mph - N/A   Overcast
5:15 AM 66.2 °F - 62.6 °F 88% 29.88 in 10.0 mi SSW 6.9 mph - 0.01 in   Overcast
5:35 AM 66.2 °F - 60.8 °F 83% 29.88 in 10.0 mi SW 5.8 mph - 0.01 in   Overcast
5:55 AM 66.2 °F - 60.8 °F 83% 29.89 in 10.0 mi SSW 6.9 mph - 0.01 in   Mostly Cloudy
6:15 AM 64.4 °F - 60.8 °F 88% 29.89 in 10.0 mi SSW 6.9 mph - N/A   Scattered Clouds
6:35 AM 64.4 °F - 60.8 °F 88% 29.89 in 10.0 mi SSW 6.9 mph - N/A   Scattered Clouds
6:55 AM 64.4 °F - 60.8 °F 88% 29.90 in 10.0 mi SSW 6.9 mph - N/A   Partly Cloudy
7:15 AM 64.4 °F - 60.8 °F 88% 29.90 in 10.0 mi SSW 8.1 mph - N/A   Scattered Clouds
7:35 AM 66.2 °F - 60.8 °F 83% 29.91 in 10.0 mi SSW 8.1 mph - N/A   Clear
7:55 AM 66.2 °F - 60.8 °F 83% 29.91 in 10.0 mi SSW 10.4 mph - N/A   Clear
8:15 AM 68.0 °F - 60.8 °F 78% 29.91 in 10.0 mi SSW 6.9 mph - N/A   Clear
8:35 AM 69.8 °F - 60.8 °F 73% 29.91 in 10.0 mi SSW 11.5 mph - N/A   Scattered Clouds
8:55 AM 69.8 °F - 60.8 °F 73% 29.91 in 10.0 mi SSW 10.4 mph - N/A   Scattered Clouds
9:15 AM 69.8 °F - 60.8 °F 73% 29.91 in 10.0 mi SSW 10.4 mph - N/A   Partly Cloudy
9:35 AM 71.6 °F - 60.8 °F 69% 29.92 in 10.0 mi SSW 10.4 mph - N/A   Mostly Cloudy
9:55 AM 71.6 °F - 60.8 °F 69% 29.91 in 10.0 mi South 9.2 mph - N/A   Mostly Cloudy
10:15 AM 73.4 °F - 62.6 °F 69% 29.91 in 10.0 mi SW 9.2 mph - N/A   Mostly Cloudy
10:35 AM 75.2 °F - 62.6 °F 65% 29.91 in 10.0 mi South 8.1 mph - N/A   Partly Cloudy
10:55 AM 75.2 °F - 62.6 °F 65% 29.91 in 10.0 mi South 11.5 mph - N/A   Clear
11:15 AM 77.0 °F - 62.6 °F 61% 29.90 in 10.0 mi SSW 8.1 mph - N/A   Clear
11:35 AM 78.8 °F - 62.6 °F 57% 29.90 in 10.0 mi SSW 12.7 mph 19.6 mph N/A   Clear
11:55 AM 78.8 °F - 62.6 °F 57% 29.90 in 10.0 mi South 15.0 mph 23.0 mph N/A   Clear
12:15 PM 78.8 °F - 62.6 °F 57% 29.89 in 10.0 mi SSW 10.4 mph 19.6 mph N/A   Partly Cloudy
12:35 PM 80.6 °F 81.8 °F 62.6 °F 54% 29.88 in 10.0 mi SSW 13.8 mph 20.7 mph N/A   Partly Cloudy
12:55 PM 80.6 °F 81.8 °F 62.6 °F 54% 29.88 in 10.0 mi SSW 16.1 mph 23.0 mph N/A   Partly Cloudy
1:15 PM 82.4 °F 83.4 °F 62.6 °F 51% 29.87 in 10.0 mi South 16.1 mph 21.9 mph N/A   Partly Cloudy
1:35 PM 82.4 °F 83.4 °F 62.6 °F 51% 29.86 in 10.0 mi SSW 18.4 mph 21.9 mph N/A   Partly Cloudy
1:55 PM 84.2 °F 85.0 °F 62.6 °F 48% 29.85 in 10.0 mi South 15.0 mph 20.7 mph N/A   Partly Cloudy
2:15 PM 84.2 °F 84.4 °F 60.8 °F 45% 29.85 in 10.0 mi SSW 15.0 mph 25.3 mph N/A   Partly Cloudy
2:35 PM 84.2 °F 84.4 °F 60.8 °F 45% 29.84 in 10.0 mi SSW 21.9 mph 29.9 mph N/A   Scattered Clouds
2:55 PM 84.2 °F 84.4 °F 60.8 °F 45% 29.84 in 10.0 mi SSW 12.7 mph 24.2 mph N/A   Mostly Cloudy
3:15 PM 82.4 °F 82.9 °F 60.8 °F 48% 29.83 in 10.0 mi SSW 18.4 mph 26.5 mph N/A   Mostly Cloudy
3:35 PM 82.4 °F 82.9 °F 60.8 °F 48% 29.82 in 10.0 mi SSW 13.8 mph 26.5 mph N/A   Mostly Cloudy
3:55 PM 82.4 °F 82.5 °F 59.0 °F 45% 29.82 in 10.0 mi South 19.6 mph 26.5 mph N/A   Mostly Cloudy
4:15 PM 82.4 °F 82.9 °F 60.8 °F 48% 29.81 in 10.0 mi SSW 13.8 mph 21.9 mph N/A   Mostly Cloudy
4:35 PM 82.4 °F 82.9 °F 60.8 °F 48% 29.80 in 10.0 mi South 20.7 mph 27.6 mph N/A   Partly Cloudy
4:55 PM 82.4 °F 82.9 °F 60.8 °F 48% 29.80 in 10.0 mi SSW 15.0 mph 24.2 mph N/A   Partly Cloudy
5:15 PM 82.4 °F 82.5 °F 59.0 °F 45% 29.80 in 10.0 mi South 13.8 mph 21.9 mph N/A   Scattered Clouds
5:35 PM 82.4 °F 82.9 °F 60.8 °F 48% 29.79 in 10.0 mi SSW 11.5 mph 25.3 mph N/A   Scattered Clouds
5:55 PM 80.6 °F 81.1 °F 59.0 °F 48% 29.79 in 10.0 mi SSW 13.8 mph 19.6 mph N/A   Mostly Cloudy
6:15 PM 80.6 °F 80.8 °F 57.2 °F 45% 29.79 in 10.0 mi SW 16.1 mph 26.5 mph N/A   Mostly Cloudy
6:35 PM 80.6 °F 81.1 °F 59.0 °F 48% 29.79 in 10.0 mi SSW 11.5 mph 21.9 mph N/A   Partly Cloudy
6:55 PM 78.8 °F - 59.0 °F 51% 29.80 in 10.0 mi SSW 19.6 mph 24.2 mph N/A   Mostly Cloudy
7:15 PM 77.0 °F - 57.2 °F 50% 29.81 in 10.0 mi South 17.3 mph 24.2 mph N/A Thunderstorm Overcast
7:35 PM 73.4 °F - 60.8 °F 65% 29.82 in 10.0 mi South 18.4 mph 23.0 mph N/A   Mostly Cloudy
7:55 PM 73.4 °F - 60.8 °F 65% 29.82 in 10.0 mi South 16.1 mph 24.2 mph N/A   Overcast
8:15 PM 71.6 °F - 60.8 °F 69% 29.82 in 10.0 mi South 13.8 mph 19.6 mph N/A   Mostly Cloudy
8:35 PM 69.8 °F - 60.8 °F 73% 29.82 in 10.0 mi South 13.8 mph - N/A   Partly Cloudy
8:55 PM 69.8 °F - 60.8 °F 73% 29.82 in 10.0 mi South 16.1 mph - N/A   Clear
9:15 PM 69.8 °F - 60.8 °F 73% 29.82 in 10.0 mi South 13.8 mph 18.4 mph N/A   Clear
9:35 PM 68.0 °F - 60.8 °F 78% 29.82 in 10.0 mi South 13.8 mph 18.4 mph N/A   Clear
9:55 PM 68.0 °F - 60.8 °F 78% 29.82 in 10.0 mi South 11.5 mph - N/A   Clear
10:15 PM 66.2 °F - 60.8 °F 83% 29.82 in 10.0 mi South 12.7 mph - N/A   Partly Cloudy
10:35 PM 66.2 °F - 60.8 °F 83% 29.83 in 10.0 mi South 13.8 mph 20.7 mph N/A   Partly Cloudy
10:55 PM 66.2 °F - 59.0 °F 78% 29.83 in 10.0 mi South 13.8 mph 19.6 mph N/A   Partly Cloudy
11:15 PM 66.2 °F - 59.0 °F 78% 29.83 in 10.0 mi South 11.5 mph 21.9 mph N/A   Scattered Clouds
11:35 PM 66.2 °F - 59.0 °F 78% 29.82 in 10.0 mi South 13.8 mph - N/A   Mostly Cloudy
11:55 PM 66.2 °F - 59.0 °F 78% 29.82 in 10.0 mi South 13.8 mph 20.7 mph N/A   Mostly Cloudy